Flag for Switzerland Weather past 2 weeks in Bern, Bern, Switzerland

Now
32 °F

Sprinkles. Overcast.


Feels Like: 29 °F
Forecast: 29 / 42 °F
Wind: 3 mph from South

Location: Bern / Belp

Current Time: Mar 5, 2015 at 3:52:33 AM

Latest Report: Mar 5, 2015 at 2:50 AM


Visibility: 6 mi

Pressure: 30.48 "Hg

Humidity: 93%

Dew point: 30 °F

Location of BernLocation

Historic Weather in Bern — Graph

°F

Bern temperature yesterday

Maximum temperature yesterday: 43 °F (at 1:20 AM)
Minimum temperature yesterday: 32 °F (at 9:20 PM)
Average temperature yesterday: 37 °F

Past Weeks' High & Low Weather Summary

 TemperatureHumidityPressure
High52 °F (Feb 20, 2:20 PM)100% (Feb 20, 4:20 AM)30.60 "Hg (Feb 20, 4:20 AM)
Low21 °F (Feb 20, 7:20 AM)24% (Feb 20, 3:50 PM)29.56 "Hg (Feb 21, 9:20 AM)
Average36 °F83%30.04 "Hg
* Reported Feb 18 2:20 AM — Mar 5 2:50 AM, Bern, Weather by CustomWeather, © 2015

Note: Actual official high and low records may vary slightly from our data, if they occured in-between our weather recording intervals... More about our weather records

Advertising

Bern weather history for previous 24 hours

 ConditionsComfort  
Time TempWeatherWind HumidityBarometerVisibility
2:50 AM
Thu, Mar 5
32 °FSprinkles. Overcast.3 mph93%30.48 "Hg6 mi
2:20 AM32 °FLight snow. Passing clouds.2 mph93%30.48 "Hg2 mi
1:50 AM32 °FPassing clouds.3 mph93%30.45 "HgN/A
1:20 AM30 °FPartly cloudy.3 mph100%30.45 "HgN/A
12:50 AM32 °FPassing clouds.3 mph93%30.45 "HgN/A
12:20 AM32 °FPartly cloudy.2 mph100%30.45 "HgN/A
11:50 PM
Wed, Mar 4
32 °FLight snow. Partly cloudy.1 mph100%30.45 "Hg3 mi
11:20 PM32 °FOvercast.2 mph100%30.45 "HgN/A
10:20 PM32 °FPartly cloudy.5 mph100%30.42 "HgN/A
9:50 PM32 °FPartly cloudy.2 mph100%30.42 "HgN/A
9:20 PM32 °FPassing clouds.1 mph93%30.42 "HgN/A
8:50 PM34 °FPassing clouds.3 mph87%30.39 "HgN/A
8:20 PM34 °FPartly cloudy.2 mph93%30.39 "HgN/A
7:50 PM34 °FPartly cloudy.5 mph93%30.39 "HgN/A
7:20 PM36 °FPartly cloudy.6 mph87%30.36 "HgN/A
6:50 PM36 °FPassing clouds.5 mph87%30.36 "HgN/A
6:20 PM36 °FPassing clouds.5 mph87%30.36 "HgN/A
5:50 PM37 °FPartly sunny.7 mph75%30.33 "HgN/A
5:20 PM37 °FPassing clouds.3 mph81%30.33 "HgN/A
4:50 PM39 °FPartly sunny.6 mph65%30.33 "HgN/A
4:20 PM39 °FPartly sunny.5 mph65%30.30 "HgN/A
3:50 PM39 °FScattered showers. Broken clouds.10 mph70%30.30 "HgN/A
3:20 PM39 °FBroken clouds.7 mph75%30.30 "HgN/A
2:50 PM39 °FBroken clouds.8 mph75%30.30 "HgN/A
2:20 PM39 °FScattered showers. Broken clouds.6 mph87%30.30 "HgN/A
1:50 PM39 °FBroken clouds.9 mph87%30.30 "HgN/A
1:20 PM37 °FPartly sunny.7 mph93%30.33 "HgN/A
12:50 PM36 °FLight rain. Broken clouds.3 mph87%30.33 "HgN/A
12:20 PM39 °FLight rain. Broken clouds.1 mph81%30.33 "HgN/A
11:50 AM39 °FBroken clouds.1 mph81%30.33 "HgN/A
11:20 AM39 °FBroken clouds.2 mph81%30.33 "HgN/A
10:50 AM37 °FBroken clouds.2 mph87%30.33 "HgN/A
10:20 AM37 °FPartly sunny.3 mph93%30.30 "HgN/A
9:50 AM37 °FPartly sunny.5 mph87%30.30 "HgN/A
9:20 AM37 °FBroken clouds.3 mph93%30.30 "HgN/A
8:50 AM36 °FPartly sunny.7 mph93%30.30 "HgN/A
8:20 AM36 °FBroken clouds.5 mph93%30.30 "HgN/A
7:50 AM34 °FLight rain. Broken clouds.3 mph100%30.27 "Hg4 mi
7:20 AM34 °FLight snow. Mostly cloudy.2 mph100%30.27 "Hg4 mi
6:50 AM34 °FLight snow. Overcast.2 mph100%30.27 "Hg4 mi
6:20 AM34 °FLight rain. Mostly cloudy.2 mph100%30.27 "HgN/A
5:50 AM34 °FLight rain. Mostly cloudy.3 mph100%30.27 "HgN/A
5:20 AM34 °FLight snow. Partly cloudy.1 mph93%30.27 "HgN/A
4:50 AM36 °FRain. Passing clouds.6 mph93%30.24 "Hg6 mi
4:20 AM37 °FRain. Partly cloudy.9 mph93%30.24 "HgN/A
3:50 AM41 °FRain. Passing clouds.12 mph87%30.21 "Hg4 mi
3:20 AM41 °FLight rain. Passing clouds.5 mph81%30.21 "HgN/A
Weather by CustomWeather, © 2015

See weather overviewHow to use our weather pages